Location: Archemont
(49.1579°N, 1.7598°E)
Time: 05:17:17
(UTC+00:00)

S-56A Canister/Altair - Pass Details

Date: 26 April 2024
Orbit: 638 x 2488 km, 38.9° (Epoch: 18 May)

Event Time Altitude Azimuth Distance (km) Brightness Sun altitude
Rises 15:36:59 0° 232° (SW) 2,950 11.5 32.0°
Reaches altitude 10° 15:39:29 10° 217° (SW) 2,111 10.7 31.6°
Maximum altitude 15:43:19 24° 163° (SSE) 1,538 9.3 31.0°
Drops below altitude 10° 15:47:58 10° 111° (ESE) 2,615 9.9 30.3°
Sets 15:51:28 0° 99° (E) 3,851 10.6 29.8°
